GW7170 Weather Reports


time (UTC)temp
C
wind
direction
speed
KPH
gust
KPH
rain 1hr
cm
rain 24hr
cm
rain mn
cm
humidity
%
barometer
mb
20260504184116 28 264 8.0 14.5 0.00 0.00 0.00 24 999.4
20260504183115 29 358 3.2 8.0 0.00 0.00 0.00 26 999.4
20260504182116 28 295 6.4 14.5 0.00 0.00 0.00 26 999.4
20260504181116 28 273 11.3 24.1 0.00 0.00 0.00 26 999.4
20260504180136 27 265 6.4 20.9 0.00 0.00 0.00 27 999.4
20260504175117 27 284 6.4 17.7 0.00 0.00 0.00 27 999.4
20260504174116 28 269 4.8 9.7 0.00 0.00 0.00 26 999.4
20260504173117 27 232 6.4 12.9 0.00 0.00 0.00 27 999.4
20260504172116 27 135 4.8 9.7 0.00 0.00 0.00 27 999.4
20260504171115 28 257 6.4 20.9 0.00 0.00 0.00 26 999.4
20260504170115 27 269 9.7 22.5 0.00 0.00 0.00 27 999.4
20260504160116 28 134 8.0 9.7 0.00 0.00 0.00 29 1000.4
20260504151115 25 156 6.4 8.0 0.00 0.00 0.00 33 1000.4
20260504150117 25 174 8.0 11.3 0.00 0.00 0.00 34 1000.4
20260504141116 22 150 4.8 6.4 0.00 0.00 0.00 37 1001.4
20260504140115 20 122 4.8 11.3 0.00 0.00 0.00 39 1001.4
20260504130115 17 272 1.6 3.2 0.00 0.00 0.00 47 1001.4
20260504120116 12 274 8.0 9.7 0.00 0.00 0.00 56 1001.4
20260504110116 10 275 12.9 12.9 0.00 0.00 0.00 63 1001.4
20260504100115 10 274 12.9 12.9 0.00 0.00 0.00 62 1002.5
20260504090117 11 273 11.3 12.9 0.00 0.00 0.00 56 1002.5
20260504081136 10 273 11.3 12.9 0.00 0.00 0.00 56 1003.5
20260504080135 11 273 11.3 11.3 0.00 0.00 0.00 55 1003.5
20260504070135 13 274 8.0 8.0 0.00 0.00 0.00 46 1004.5
20260504060115 12 274 9.7 9.7 0.00 0.00 0.00 51 1005.5
20260504050116 13 275 6.4 6.4 0.00 0.00 0.00 45 1005.5
20260504045117 13 274 6.4 6.4 0.00 0.00 0.00 45 1005.5
20260504044115 13 274 4.8 6.4 0.00 0.00 0.00 44 1005.5
20260504043118 13 274 6.4 6.4 0.00 0.00 0.00 43 1005.5
20260504042115 14 274 4.8 4.8 0.00 0.00 0.00 42 1005.5
20260504041116 14 275 4.8 4.8 0.00 0.00 0.00 41 1006.6
20260504040136 14 276 3.2 4.8 0.00 0.00 0.00 41 1006.6
20260504035116 15 277 1.6 3.2 0.00 0.00 0.00 39 1006.6
20260504034117 15 322 0.0 1.6 0.00 0.00 0.00 37 1006.6
20260504033115 16 0.0 0.0 0.00 0.00 0.00 35 1006.6
20260504032115 16 0.0 0.0 0.00 0.00 0.00 35 1006.6
20260504031117 17 37 0.0 1.6 0.00 0.00 0.00 33 1006.6
20260504030115 17 55 0.0 1.6 0.00 0.00 0.00 33 1006.6
20260504025116 17 80 1.6 3.2 0.00 0.00 0.00 32 1006.6
20260504024137 17 84 3.2 3.2 0.00 0.00 0.00 32 1006.6
20260504023115 17 80 1.6 3.2 0.00 0.00 0.00 33 1006.6
20260504022116 17 78 3.2 3.2 0.00 0.00 0.00 32 1006.6
20260504021116 17 76 3.2 3.2 0.00 0.00 0.00 32 1006.6
20260504020117 17 79 3.2 3.2 0.00 0.00 0.00 31 1006.6
20260504015118 18 83 3.2 4.8 0.00 0.00 0.00 31 1006.6
20260504014116 19 71 3.2 3.2 0.00 0.00 0.00 29 1006.6
20260504013135 19 77 6.4 6.4 0.00 0.00 0.00 28 1006.6
20260504012156 20 69 6.4 6.4 0.00 0.00 0.00 27 1006.6
20260504011116 21 82 6.4 6.4 0.00 0.00 0.00 26 1006.6
20260504010115 23 90 4.8 6.4 0.00 0.00 0.00 25 1006.6
20260504005117 24 90 3.2 6.4 0.00 0.00 0.00 23 1006.6
20260504004116 25 85 1.6 4.8 0.00 0.00 0.00 23 1006.6
20260504003117 26 111 1.6 6.4 0.00 0.00 0.00 22 1006.6
20260504002115 27 90 4.8 6.4 0.00 0.00 0.00 21 1006.6
20260504001116 27 102 1.6 4.8 0.00 0.00 0.00 21 1006.6
20260504000116 28 128 3.2 6.4 0.00 0.00 0.00 19 1006.6
20260503235115 28 114 1.6 4.8 0.00 0.00 0.00 20 1006.6
20260503234136 28 89 1.6 4.8 0.00 0.00 0.00 20 1006.6
20260503233136 28 241 4.8 12.9 0.00 0.00 0.00 19 1006.6
20260503232117 29 230 3.2 6.4 0.00 0.00 0.00 18 1006.6
20260503231115 28 287 1.6 4.8 0.00 0.00 0.00 19 1006.6
20260503230117 30 335 4.8 6.4 0.00 0.00 0.00 18 1006.6
20260503225116 30 33 4.8 11.3 0.00 0.00 0.00 17 1006.6
20260503224136 29 332 4.8 8.0 0.00 0.00 0.00 18 1006.6
20260503223117 30 6 4.8 12.9 0.00 0.00 0.00 19 1006.6
20260503222115 30 316 3.2 8.0 0.00 0.00 0.00 20 1006.6
20260503221117 30 81 3.2 6.4 0.00 0.00 0.00 18 1006.6
20260503220115 28 269 6.4 12.9 0.00 0.00 0.00 18 1006.6
20260503215116 28 262 8.0 16.1 0.00 0.00 0.00 19 1006.6
20260503214117 28 283 4.8 9.7 0.00 0.00 0.00 19 1006.6
20260503213137 28 261 3.2 6.4 0.00 0.00 0.00 20 1006.6
20260503212116 28 9 3.2 8.0 0.00 0.00 0.00 21 1007.5
20260503211116 30 80 6.4 9.7 0.00 0.00 0.00 20 1007.6
20260503210116 28 255 3.2 8.0 0.00 0.00 0.00 20 1007.6
20260503205120 27 47 4.8 9.7 0.00 0.00 0.00 21 1007.6
20260503204115 26 48 4.8 9.7 0.00 0.00 0.00 22 1007.6
20260503203115 27 45 3.2 6.4 0.00 0.00 0.00 21 1007.6
20260503202115 28 63 8.0 11.3 0.00 0.00 0.00 21 1007.6
20260503201118 30 47 14.5 24.1 0.00 0.00 0.00 19 1007.6
20260503200115 28 62 6.4 9.7 0.00 0.00 0.00 21 1007.6
20260503195137 30 78 9.7 12.9 0.00 0.00 0.00 22 1007.6
20260503194115 30 69 9.7 14.5 0.00 0.00 0.00 22 1007.6
20260503193115 29 62 9.7 19.3 0.00 0.00 0.00 23 1007.6
20260503192115 27 66 9.7 16.1 0.00 0.00 0.00 23 1007.6
20260503191116 26 293 8.0 14.5 0.00 0.00 0.00 24 1007.6
20260503190117 27 74 6.4 12.9 0.00 0.00 0.00 24 1007.6
20260503185117 26 29 3.2 9.7 0.00 0.00 0.00 25 1007.6